Regional Weather Roundup
Issued by NWS

Home | Current Version | Previous Version | Text Only | Print | Product List | Glossary Off
Versions: 1 2 3 4 5 6 7 8 9 10 11 12 13 14 15 16 17 18 19 20 21 22 23 24 25 26 27 28 29 30 31 32 33 34 35 36 37 38 39 40 41 42 43 44 45 46 47 48 49 50

000
ASUS43 KLMK 290702
RWRKY
KENTUCKY REGIONAL WEATHER ROUNDUP
NATIONAL WEATHER SERVICE LOUISVILLE KY
200 AM EST THU JAN 29 2015

NOTE "FAIR" INDICATES FEW OR NO CLOUDS BELOW 12,000 FEET
WITH NO SIGNIFICANT WEATHER AND/OR OBSTRUCTIONS TO VISIBILITY.

KYZ001>023-026-027-061>063-070>075-290800-
WESTERN AND SOUTH CENTRAL KENTUCKY

CITY           SKY/WX    TMP DP  RH WIND       PRES   REMARKS
PADUCAH        CLOUDY    50  32  50 S10G22    29.96F
HENDERSON      CLOUDY    46  28  49 S10       29.97F
OWENSBORO      CLOUDY    43  30  60 S12       30.00F
HOPKINSVILLE   CLOUDY    47  28  48 S16       30.04F
BOWLING GREEN  CLOUDY    45  26  47 S16       30.08F
GLASGOW        NOT AVBL
$$

KYZ024-025-028>034-038-045-046-053-290800-
NORTH CENTRAL KENTUCKY

CITY           SKY/WX    TMP DP  RH WIND       PRES   REMARKS
LOUISVILLE/SDF CLOUDY    35  18  49 SE7       30.06F WCI  29
LOUISVILLE/LOU CLOUDY    37  17  44 SE8       30.06F WCI  31
FORT KNOX      CLOUDY    39  21  47 SE13      30.03F WCI  32
$$

KYZ035>037-039>044-047>052-055>060-089>105-290800-
NORTHEAST KENTUCKY

CITY           SKY/WX    TMP DP  RH WIND       PRES   REMARKS
LEXINGTON      PTCLDY    33  20  58 SE13      30.10F WCI  24
COVINGTON      CLOUDY    32  20  61 S15       30.06F WCI  22
FRANKFORT      MOCLDY    33  20  58 SE8       30.08F WCI  26
$$

KYZ054-064>069-076>088-106>120-290800-
SOUTHEAST KENTUCKY

CITY           SKY/WX    TMP DP  RH WIND       PRES   REMARKS
JACKSON        MOCLDY    32  19  58 S5        30.13F WCI  27
LONDON         MOCLDY    32  18  56 S3        30.14F
SOMERSET       NOT AVBL
MIDDLESBORO    NOT AVBL
MONTICELLO     PTSUNNY   37  17  44 S6        30.16F WCI  32
$$



USA.gov is the U.S. government's official web portal to all federal, state and local government web resources and services.